Cloud_Cover
0 0 11 46 97 2 24 43 20 15 0 0 0 0 69 5 3 3 99 98 18 45 0 0 4 100 100 100 100 62 23 3 2 1 0 0 8 100 65 76 1 0 0
0 0 0 11 6 41 100 97 7 0 0 0 0 0 10 75 94 95 62 98 97 99 0 0 0 100 100 100 100 24 0 0 0 0 0 0 0 6 0 4 70 9 10
0 0 0 6 15 4 5 98 4 0 0 0 0 0 69 86 18 12 97 85 100 100 25 60 0 100 100 43 98 100 11 0 0 0 0 0 0 0 0 0 95 74 26
0 0 0 0 0 24 91 23 0 0 0 0 2 2 50 65 51 97 1 6 76 100 97 3 98 100 99 96 100 100 17 0 0 0 0 0 0 28 44 0 17 1 19
0 0 0 0 28 34 32 0 0 0 0 0 2 4 100 12 33 96 83 5 0 6 8 1 94 92 3 26 95 100 16 0 0 0 0 0 0 0 0 0 0 2 0
1 0 0 0 33 10 14 0 0 0 0 0 60 6 100 100 100 100 100 39 4 2 0 0 0 0 5 0 0 1 0 0 0 0 0 0 0 0 0 0 0 0 0
8 1 0 0 8 16 21 16 6 0 0 0 59 100 100 100 100 100 100 39 3 5 5 2 0 0 0 0 0 2 79 4 0 0 0 0 0 0 0 0 0 0 0
5 8 0 0 0 0 12 20 4 0 0 1 93 100 100 100 100 100 99 5 4 0 7 1 0 0 0 0 0 0 75 55 0 0 0 0 0 0 0 0 0 0 0
5 12 22 12 0 0 0 0 0 0 0 4 98 100 17 100 100 100 74 10 2 3 100 99 54 24 3 0 1 0 2 1 0 0 0 0 0 0 0 0 0 0 0
5 3 32 30 10 0 0 0 0 0 0 53 82 100 100 100 70 68 100 5 4 2 95 100 10 9 26 4 0 0 0 0 0 0 0 0 0 0 0 0 0 0 0
5 9 29 42 36 7 0 0 0 0 5 43 98 80 100 92 100 100 37 5 3 1 3 27 47 12 0 0 0 0 0 0 0 9 0 0 0 0 0 0 0 0 0
40 22 72 58 45 32 12 0 0 0 5 24 95 100 100 100 77 12 17 5 5 5 5 0 0 7 3 0 0 0 0 0 14 14 8 0 0 0 0 0 2 0 0
48 100 23 54 29 23 16 5 19 19 5 76 69 43 100 100 98 43 5 5 5 4 14 6 6 11 1 2 1 0 5 1 15 22 9 0 0 0 2 5 4 0 19
19 46 5 21 34 25 22 16 9 26 18 14 5 63 100 74 38 3 16 5 6 8 16 22 32 20 11 2 1 5 5 5 5 0 0 0 0 0 0 0 0 4 39
5 5 7 5 15 22 26 19 7 13 17 8 4 4 84 61 18 27 14 54 11 11 24 22 24 14 16 10 5 5 0 0 0 0 0 0 0 0 0 0 4 5 5
5 18 21 5 4 15 9 12 0 5 0 5 78 99 100 74 15 61 100 29 12 16 9 12 12 12 17 12 5 5 0 0 0 0 0 5 0 0 0 0 5 5 5
0 11 74 24 5 1 5 1 0 0 5 5 5 5 8 5 5 95 100 23 0 6 1 14 16 32 62 36 11 4 0 0 0 0 0 3 5 5 5 5 5 5 5
0 0 5 7 5 0 2 0 0 0 0 0 0 0 5 5 49 28 82 5 5 0 3 3 3 5 31 15 8 1 0 0 0 0 1 0 5 5 5 5 5 8 5
3 0 0 1 2 0 0 0 0 0 0 0 0 0 0 5 5 5 5 5 5 0 0 16 34 89 99 100 100 84 67 33 5 0 5 3 5 5 5 5 5 5 5
0 0 0 0 0 0 0 0 0 0 1 1 5 5 5 4 5 5 5 5 42 53 32 25 92 100 100 81 87 100 100 70 0 2 0 5 5 5 5 5 5 5 5
0 0 0 0 0 0 0 0 0 0 0 5 9 18 26 5 5 5 5 2 0 0 0 3 64 90 83 55 100 95 65 6 6 40 5 5 2 1 1 5 5 7 5
0 0 0 0 3 5 0 0 0 3 5 5 26 21 6 3 2 5 5 4 0 2 8 27 96 98 100 100 100 100 100 62 55 11 5 5 3 5 5 5 5 21 8
2 0 2 47 32 3 1 2 5 5 6 6 5 4 5 0 2 0 1 0 0 8 37 26 42 72 94 70 100 100 100 100 100 45 52 24 80 99 79 49 59 82 87
100 100 100 100 93 25 5 5 35 76 27 5 1 0 0 0 0 0 0 2 5 5 5 5 5 5 9 13 5 27 75 95 100 100 100 100 96 53 74 54 48 63 86
100 100 89 5 21 85 97 56 6 5 5 2 0 0 0 0 1 5 5 5 5 5 5 5 5 5 5 5 5 2 5 5 5 25 43 5 23 26 37 63 34 18 97
22 19 35 83 73 19 5 5 6 5 1 0 0 5 5 5 8 18 9 7 16 40 41 28 17 22 28 36 61 58 9 5 10 29 63 57 51 8 5 5 5 19 19